Location: Filler
(36.7551°N, 30.4456°E)
Time: 06:20:35
(UTC+00:00)

FENGYUN 3A - Pass Details

Date: 17 September 2024
Orbit: 821 x 835 km, 98.6° (Epoch: 12 October)

Event Time Altitude Azimuth Distance (km) Brightness Sun altitude
Rises 01:32:27 0° 354° (N) 3,366 7.1 -26.0°
Reaches altitude 10° 01:35:35 10° 336° (NNW) 2,426 6.1 -25.4°
Enters shadow 01:36:44 14° 324° (NW) 2,174 5.7 -25.2°
